FW7886 Weather Reports


Display with metric or nautical units.
time (UTC)temp
F
wind
direction
speed
MPH
gust
MPH
rain 1hr
in
rain 24hr
in
rain mn
in
humidity
%
barometer
mb
20260505230621 81 45 5.0 10.0 0.00 0.00 0.00 76 1009.9
20260505230345 81 43 4.0 10.0 0.00 0.00 0.00 76 1009.9
20260505225622 81 43 4.0 10.0 0.00 0.00 0.00 76 1010.0
20260505225115 81 43 4.0 10.0 0.00 0.00 0.00 75 1010.0
20260505224610 81 43 5.0 10.0 0.00 0.00 0.00 76 1009.8
20260505224104 81 40 5.0 11.0 0.00 0.00 0.00 75 1009.8
20260505223558 82 40 6.0 11.0 0.00 0.00 0.00 75 1009.9
20260505223052 82 42 6.0 11.0 0.00 0.00 0.00 75 1009.9
20260505222545 82 46 5.0 11.0 0.00 0.00 0.00 74 1009.9
20260505222037 82 40 5.0 12.0 0.00 0.00 0.00 74 1009.8
20260505221531 83 350 5.0 12.0 0.00 0.00 0.00 73 1009.9
20260505221030 83 281 5.0 11.0 0.00 0.00 0.00 74 1010.0
20260505220516 83 43 4.0 8.0 0.00 0.00 0.00 74 1010.1
20260505220008 83 43 5.0 9.0 0.00 0.00 0.00 75 1010.0
20260505215503 83 43 5.0 10.0 0.00 0.00 0.00 74 1010.0
20260505214956 83 43 5.0 15.0 0.00 0.00 0.00 73 1009.9
20260505214450 83 43 5.0 15.0 0.00 0.00 0.00 72 1009.9
20260505214202 83 44 5.0 11.0 0.00 0.00 0.00 73 1010.0
20260505213439 83 45 5.0 11.0 0.00 0.00 0.00 73 1010.1
20260505212933 83 43 4.0 11.0 0.00 0.00 0.00 75 1010.1
20260505212427 83 43 5.0 11.0 0.00 0.00 0.00 74 1010.1
20260505211921 83 49 5.0 11.0 0.00 0.00 0.00 74 1010.1
20260505211415 83 48 5.0 11.0 0.00 0.00 0.00 74 1010.0
20260505210909 83 42 6.0 11.0 0.00 0.00 0.00 74 1010.1
20260505210557 83 42 5.0 10.0 0.00 0.00 0.00 72 1010.2
20260505210444 83 42 5.0 11.0 0.00 0.00 0.00 73 1010.2
20260505205351 83 42 5.0 11.0 0.00 0.00 0.00 74 1010.3
20260505204844 83 42 5.0 11.0 0.00 0.00 0.00 73 1010.4
20260505204339 83 43 5.0 11.0 0.00 0.00 0.00 73 1010.4
20260505203832 82 43 5.0 12.0 0.00 0.00 0.00 73 1010.5
20260505203327 83 47 4.0 12.0 0.00 0.00 0.00 72 1010.6
20260505203307 83 48 4.0 11.0 0.00 0.00 0.00 73 1010.6
20260505202315 83 43 5.0 12.0 0.00 0.00 0.00 73 1010.7
20260505202035 83 48 4.0 12.0 0.00 0.00 0.00 73 1010.7
20260505201302 83 42 4.0 10.0 0.00 0.00 0.00 73 1010.7
20260505200757 83 42 4.0 9.0 0.00 0.00 0.00 73 1010.9
20260505200251 83 42 4.0 9.0 0.00 0.00 0.00 72 1010.9
20260505195745 83 42 3.0 8.0 0.00 0.00 0.00 73 1010.8
20260505195239 83 42 4.0 9.0 0.00 0.00 0.00 74 1010.8
20260505194732 83 42 4.0 9.0 0.00 0.00 0.00 73 1010.7
20260505194227 83 42 4.0 10.0 0.00 0.00 0.00 72 1010.8
20260505193725 83 42 4.0 9.0 0.00 0.00 0.00 72 1010.8
20260505193214 83 42 4.0 8.0 0.00 0.00 0.00 71 1011.0
20260505192939 83 40 3.0 10.0 0.00 0.00 0.00 70 1011.0
20260505192438 83 42 4.0 10.0 0.00 0.00 0.00 70 1011.0
20260505191709 83 42 4.0 8.0 0.00 0.00 0.00 70 1011.0
20260505191208 83 40 4.0 11.0 0.00 0.00 0.00 70 1011.0
20260505190709 83 48 4.0 11.0 0.00 0.00 0.00 69 1011.2
20260505190207 83 43 4.0 9.0 0.00 0.00 0.00 70 1011.2
20260505185708 83 43 4.0 10.0 0.00 0.00 0.00 70 1011.3
20260505185208 83 43 5.0 13.0 0.00 0.00 0.00 68 1011.1
20260505184709 83 85 5.0 13.0 0.00 0.00 0.00 70 1011.2
20260505184207 83 37 5.0 11.0 0.00 0.00 0.00 70 1011.1
20260505183705 83 260 5.0 11.0 0.00 0.00 0.00 70 1011.0
20260505183207 83 42 5.0 9.0 0.00 0.00 0.00 70 1011.1
20260505182704 83 43 5.0 10.0 0.00 0.00 0.00 69 1011.1
20260505182205 83 40 5.0 11.0 0.00 0.00 0.00 69 1011.2
20260505181705 82 42 5.0 11.0 0.00 0.00 0.00 70 1011.2
20260505181205 82 43 4.0 10.0 0.00 0.00 0.00 71 1011.2
20260505180703 82 40 5.0 9.0 0.00 0.00 0.00 71 1011.3
20260505180159 81 45 4.0 8.0 0.00 0.00 0.00 72 1011.5
20260505175920 81 39 5.0 12.0 0.00 0.00 0.00 72 1011.5
20260505175200 81 40 5.0 13.0 0.00 0.00 0.00 72 1011.4
20260505174703 81 42 5.0 13.0 0.00 0.00 0.00 72 1011.5
20260505174201 81 43 4.0 10.0 0.00 0.00 0.00 72 1011.6
20260505173700 81 43 4.0 10.0 0.00 0.00 0.00 73 1011.7
20260505173421 81 48 5.0 10.0 0.00 0.00 0.00 73 1011.6
20260505172700 81 42 5.0 10.0 0.00 0.00 0.00 72 1011.7
20260505172419 80 42 4.0 11.0 0.00 0.00 0.00 73 1011.7
20260505171926 80 40 5.0 10.0 0.00 0.00 0.00 72 1011.8
20260505171156 80 359 6.0 11.0 0.00 0.00 0.00 71 1011.9
20260505170657 80 42 6.0 11.0 0.00 0.00 0.00 72 1011.9
20260505170156 80 45 6.0 10.0 0.00 0.00 0.00 72 1012.1
20260505165656 80 49 6.0 12.0 0.00 0.00 0.00 74 1012.1
20260505165157 80 43 6.0 12.0 0.00 0.00 0.00 74 1012.0
20260505164656 80 305 6.0 11.0 0.00 0.00 0.00 73 1012.1
20260505164422 80 310 4.0 10.0 0.00 0.00 0.00 75 1012.1
20260505163656 80 43 4.0 9.0 0.00 0.00 0.00 74 1012.1
20260505163157 79 43 5.0 10.0 0.00 0.00 0.00 75 1012.1
20260505162657 80 42 4.0 11.0 0.00 0.00 0.00 73 1012.2
20260505162417 80 42 5.0 11.0 0.00 0.00 0.00 74 1012.0
20260505161657 79 42 5.0 11.0 0.00 0.00 0.00 74 1012.0
20260505161155 80 178 5.0 11.0 0.00 0.00 0.00 74 1012.1
20260505160654 79 242 5.0 11.0 0.00 0.00 0.00 74 1012.1
20260505160153 79 44 6.0 11.0 0.00 0.00 0.00 75 1012.0
20260505160146 78 46 5.0 11.0 0.00 0.00 0.00 75 1012.1
20260505153137 78 42 5.0 11.0 0.00 0.00 0.00 77 1012.0
20260505152634 78 43 5.0 11.0 0.00 0.00 0.00 77 1012.2
20260505152132 78 43 5.0 11.0 0.00 0.00 0.00 76 1012.0
20260505151852 77 45 5.0 9.0 0.00 0.00 0.00 77 1012.2
20260505151130 77 49 4.0 9.0 0.00 0.00 0.00 78 1012.1
20260505150628 77 43 5.0 11.0 0.00 0.00 0.00 79 1012.1
20260505150127 76 42 5.0 11.0 0.00 0.00 0.00 78 1012.2
20260505140623 74 43 3.0 7.0 0.00 0.00 0.00 81 1012.1
20260505140125 73 43 4.0 8.0 0.00 0.00 0.00 82 1012.0
20260505124500 66 43 1.0 2.0 0.00 0.00 0.00 92 1011.6
20260505123955 65 43 1.0 3.0 0.00 0.00 0.00 93 1011.5
20260505123449 64 43 1.0 3.0 0.00 0.00 0.00 93 1011.6
20260505123203 64 43 0.0 2.0 0.00 0.00 0.00 94 1011.6
20260505122437 64 43 0.0 2.0 0.00 0.00 0.00 94 1011.7
20260505121930 63 43 1.0 2.0 0.00 0.00 0.00 95 1011.6
20260505121425 63 43 1.0 2.0 0.00 0.00 0.00 95 1011.5
20260505121140 63 43 0.0 2.0 0.00 0.00 0.00 95 1011.4
20260505120413 62 43 0.0 0.0 0.00 0.00 0.00 96 1011.5
20260505115907 62 43 0.0 1.0 0.00 0.00 0.00 96 1011.4
20260505115401 62 43 0.0 1.0 0.00 0.00 0.00 96 1011.5
20260505114855 62 43 0.0 1.0 0.00 0.00 0.00 97 1011.4
20260505114349 61 43 0.0 1.0 0.00 0.00 0.00 97 1011.4
20260505114259 60 43 0.0 0.0 0.00 0.00 0.00 97 1011.4
20260505114158 60 43 0.0 0.0 0.00 0.00 0.00 96 1011.4
20260505114008 61 43 0.0 0.0 0.00 0.00 0.00 97 1011.5
20260505113901 61 43 0.0 0.0 0.00 0.00 0.00 97 1011.4
20260505113753 60 43 0.0 0.0 0.00 0.00 0.00 97 1011.2
20260505111821 60 43 0.0 0.0 0.00 0.00 0.00 97 1011.4
20260505111306 60 43 0.0 0.0 0.00 0.00 0.00 96 1011.4
20260505110800 60 43 0.0 0.0 0.00 0.00 0.00 96 1011.3
20260505110254 60 43 0.0 0.0 0.00 0.00 0.00 96 1011.3
20260505101730 60 43 0.0 0.0 0.00 0.00 0.00 97 1011.4
20260505101450 60 43 0.0 0.0 0.00 0.00 0.00 96 1011.5
20260505100729 60 43 0.0 0.0 0.00 0.00 0.00 95 1011.5
20260505100227 60 43 0.0 0.0 0.00 0.00 0.00 95 1011.5
20260505095726 60 43 0.0 0.0 0.00 0.00 0.00 94 1011.4
20260505095226 60 43 0.0 0.0 0.00 0.00 0.00 94 1011.6
20260505094722 60 43 0.0 0.0 0.00 0.00 0.00 94 1011.5
20260505094224 60 43 0.0 0.0 0.00 0.00 0.00 94 1011.6
20260505093722 61 43 0.0 0.0 0.00 0.00 0.00 94 1011.7
20260505093224 61 43 0.0 0.0 0.00 0.00 0.00 94 1011.6
20260505092721 61 43 0.0 0.0 0.00 0.00 0.00 94 1011.6
20260505092221 61 43 0.0 1.0 0.00 0.00 0.00 95 1011.5
20260505091719 61 43 0.0 1.0 0.00 0.00 0.00 95 1011.4
20260505091214 60 43 0.0 1.0 0.00 0.00 0.00 95 1011.4
20260505090714 60 43 0.0 1.0 0.00 0.00 0.00 94 1011.4
20260505090212 60 43 0.0 1.0 0.00 0.00 0.00 94 1011.3
20260505085714 60 43 0.0 1.0 0.00 0.00 0.00 94 1011.4
20260505085210 61 43 0.0 1.0 0.00 0.00 0.00 94 1011.4
20260505084711 61 43 0.0 0.0 0.00 0.00 0.00 93 1011.5
20260505084211 61 43 0.0 1.0 0.00 0.00 0.00 94 1011.5
20260505083709 61 43 0.0 1.0 0.00 0.00 0.00 94 1011.7
20260505083209 60 43 0.0 0.0 0.00 0.00 0.00 92 1011.7
20260505082709 60 43 0.0 0.0 0.00 0.00 0.00 91 1011.7
20260505082646 61 43 0.0 0.0 0.00 0.00 0.00 90 1011.6
20260505081707 61 43 0.0 0.0 0.00 0.00 0.00 90 1011.6
20260505081207 61 43 0.0 0.0 0.00 0.00 0.00 90 1011.6
20260505080707 62 43 0.0 1.0 0.00 0.00 0.00 89 1011.7
20260505080208 62 43 0.0 1.0 0.00 0.00 0.00 89 1011.6
20260505075704 62 43 0.0 0.0 0.00 0.00 0.00 89 1011.5
20260505075202 63 43 0.0 0.0 0.00 0.00 0.00 89 1011.5
20260505074704 63 43 0.0 1.0 0.00 0.00 0.00 89 1011.4
20260505074203 63 43 0.0 1.0 0.00 0.00 0.00 88 1011.5
20260505073702 63 43 0.0 2.0 0.00 0.00 0.00 88 1011.4
20260505073646 63 43 0.0 2.0 0.00 0.00 0.00 88 1011.4
20260505072703 63 43 0.0 1.0 0.00 0.00 0.00 88 1011.4
20260505072204 63 43 0.0 2.0 0.00 0.00 0.00 88 1011.4
20260505071704 63 43 0.0 2.0 0.00 0.00 0.00 87 1011.4
20260505071200 63 43 0.0 1.0 0.00 0.00 0.00 88 1011.4
20260505070659 63 43 0.0 1.0 0.00 0.00 0.00 87 1011.7
20260505070159 63 43 0.0 2.0 0.00 0.00 0.00 87 1012.0
20260505065659 63 43 0.0 2.0 0.00 0.00 0.00 86 1012.1
20260505065200 64 43 0.0 1.0 0.00 0.00 0.00 87 1012.0
20260505064658 64 43 0.0 2.0 0.00 0.00 0.00 87 1012.1
20260505064158 64 43 1.0 2.0 0.00 0.00 0.00 86 1012.1
20260505063924 64 43 1.0 2.0 0.00 0.00 0.00 86 1012.2
20260505063200 64 43 0.0 2.0 0.00 0.00 0.00 86 1012.2
20260505062658 64 43 1.0 2.0 0.00 0.00 0.00 86 1012.2
20260505062158 64 43 0.0 1.0 0.00 0.00 0.00 86 1012.2
20260505061923 64 43 1.0 2.0 0.00 0.00 0.00 85 1012.4
20260505061157 64 43 1.0 2.0 0.00 0.00 0.00 85 1012.4
20260505060656 64 43 1.0 2.0 0.00 0.00 0.00 85 1012.4
20260505060156 64 43 1.0 2.0 0.00 0.00 0.00 85 1012.5
20260505055917 64 43 1.0 2.0 0.00 0.00 0.00 85 1012.6
20260505055156 64 43 1.0 2.0 0.00 0.00 0.00 84 1012.7
20260505054653 64 43 1.0 2.0 0.00 0.00 0.00 84 1012.7
20260505054153 64 43 0.0 1.0 0.00 0.00 0.00 84 1012.8
20260505053650 64 43 1.0 1.0 0.00 0.00 0.00 84 1012.9
20260505053152 64 43 1.0 1.0 0.00 0.00 0.00 83 1012.9
20260505053136 65 43 0.0 1.0 0.00 0.00 0.00 83 1012.9
20260505052145 65 43 0.0 1.0 0.00 0.00 0.00 84 1012.8
20260505051638 65 43 0.0 1.0 0.00 0.00 0.00 83 1012.8
20260505051133 65 43 0.0 1.0 0.00 0.00 0.00 84 1012.9
20260505050853 65 43 0.0 1.0 0.00 0.00 0.00 83 1012.7
20260505050120 65 43 0.0 1.0 0.00 0.00 0.00 83 1012.8
20260505041552 66 43 2.0 4.0 0.00 0.00 0.00 79 1012.7
20260505041533 66 43 2.0 4.0 0.00 0.00 0.00 79 1012.9
20260505040548 66 43 2.0 4.0 0.00 0.00 0.00 79 1012.8
20260505040044 66 43 2.0 4.0 0.00 0.00 0.00 79 1012.8
20260505035546 66 43 2.0 4.0 0.00 0.00 0.00 78 1012.9
20260505035046 66 43 2.0 4.0 0.00 0.00 0.00 79 1012.8
20260505034543 66 43 2.0 4.0 0.00 0.00 0.00 78 1012.9
20260505034043 67 43 2.0 4.0 0.00 0.00 0.00 77 1012.9
20260505033544 67 43 2.0 4.0 0.00 0.00 0.00 76 1012.8
20260505033042 67 43 1.0 4.0 0.00 0.00 0.00 76 1012.8
20260505032543 67 43 2.0 4.0 0.00 0.00 0.00 75 1013.0
20260505032042 68 43 2.0 4.0 0.00 0.00 0.00 75 1013.1
20260505031543 68 43 2.0 4.0 0.00 0.00 0.00 74 1013.0
20260505031042 68 43 2.0 4.0 0.00 0.00 0.00 75 1012.9
20260505030538 68 43 1.0 4.0 0.00 0.00 0.00 73 1012.9
20260505030039 68 43 1.0 3.0 0.00 0.00 0.00 75 1012.8
20260505025539 68 43 1.0 3.0 0.00 0.00 0.00 73 1012.8
20260505025039 68 43 1.0 4.0 0.00 0.00 0.00 72 1012.7
20260505024540 69 43 1.0 4.0 0.00 0.00 0.00 72 1012.7
20260505024039 69 43 1.0 4.0 0.00 0.00 0.00 72 1012.6
20260505023539 69 43 2.0 4.0 0.00 0.00 0.00 71 1012.6
20260505023040 69 43 1.0 4.0 0.00 0.00 0.00 73 1012.5
20260505022540 69 43 2.0 3.0 0.00 0.00 0.00 71 1012.5
20260505022038 69 43 2.0 3.0 0.00 0.00 0.00 71 1012.2
20260505021540 69 43 1.0 5.0 0.00 0.00 0.00 70 1012.4
20260505021040 69 43 1.0 5.0 0.00 0.00 0.00 70 1012.5
20260505020538 69 43 1.0 4.0 0.00 0.00 0.00 70 1012.5
20260505020040 69 43 1.0 3.0 0.00 0.00 0.00 71 1012.4
20260505015539 70 43 1.0 5.0 0.00 0.00 0.00 68 1012.6
20260505015042 70 43 1.0 5.0 0.00 0.00 0.00 69 1012.3
20260505014801 70 43 1.0 4.0 0.00 0.00 0.00 68 1012.4
20260505014040 70 43 1.0 4.0 0.00 0.00 0.00 67 1012.6
20260505013534 70 43 1.0 4.0 0.00 0.00 0.00 67 1012.3
20260505013028 71 43 1.0 4.0 0.00 0.00 0.00 67 1012.3
20260505012741 71 43 2.0 4.0 0.00 0.00 0.00 66 1012.2
20260505012239 71 43 2.0 4.0 0.00 0.00 0.00 65 1012.2
20260505011509 71 43 2.0 4.0 0.00 0.00 0.00 66 1012.1
20260505011004 71 43 2.0 5.0 0.00 0.00 0.00 65 1012.3
20260505010458 71 43 2.0 5.0 0.00 0.00 0.00 64 1012.2
20260505005950 72 43 2.0 4.0 0.00 0.00 0.00 63 1012.2
20260505005444 72 43 2.0 5.0 0.00 0.00 0.00 63 1012.3
20260505005158 72 43 2.0 5.0 0.00 0.00 0.00 62 1012.2
20260505004444 73 43 3.0 5.0 0.00 0.00 0.00 61 1012.0
20260505003944 73 43 3.0 6.0 0.00 0.00 0.00 60 1012.1
20260505003441 73 43 2.0 6.0 0.00 0.00 0.00 60 1012.1
20260505002940 73 43 2.0 6.0 0.00 0.00 0.00 59 1012.3
20260505002441 74 43 2.0 6.0 0.00 0.00 0.00 57 1012.3
20260505001940 74 43 2.0 5.0 0.00 0.00 0.00 57 1012.5
20260505001440 74 43 2.0 6.0 0.00 0.00 0.00 57 1012.4
20260505001203 75 43 3.0 6.0 0.00 0.00 0.00 55 1012.5
20260505000442 75 43 3.0 6.0 0.00 0.00 0.00 54 1012.5
20260504235938 75 43 3.0 7.0 0.00 0.00 0.00 53 1012.8
20260504235702 75 43 3.0 7.0 0.00 0.00 0.00 52 1012.8
20260504234938 76 43 3.0 7.0 0.00 0.00 0.00 52 1012.8
20260504234440 75 43 3.0 8.0 0.00 0.00 0.00 52 1012.9
20260504233939 75 43 4.0 11.0 0.00 0.00 0.00 52 1012.8
20260504233439 76 43 3.0 11.0 0.00 0.00 0.00 53 1012.9
20260504232933 76 43 3.0 6.0 0.00 0.00 0.00 53 1012.9
20260504232427 76 43 3.0 9.0 0.00 0.00 0.00 52 1012.9
20260504231921 76 43 3.0 9.0 0.00 0.00 0.00 53 1013.0
20260504231414 77 104 4.0 9.0 0.00 0.00 0.00 51 1013.0
20260504230909 77 235 4.0 10.0 0.00 0.00 0.00 51 1013.0